EHI
0 0 0 0 0 0 0 0 0 0 0 0 1 3 5 6 5 6 8 9 9 9 13 20 27 33 35 35 35 37 34 27 19 14 9 5 1 1 2 2 0 0 1 0
0 0 0 0 0 0 0 0 0 0 0 1 3 6 9 10 9 8 9 10 9 8 12 19 26 33 36 37 36 36 34 28 21 14 8 4 1 1 3 2 1 1 1 1
1 1 0 0 0 0 1 1 1 0 2 5 8 10 12 13 11 10 11 12 9 8 10 16 22 29 34 37 36 35 31 27 21 14 8 4 2 3 3 3 2 1 1 0
0 0 0 0 0 1 2 2 2 3 8 13 16 16 15 13 12 12 13 10 7 7 8 10 15 21 28 31 32 30 25 21 19 15 10 7 6 6 6 6 5 3 2 1
0 0 0 0 0 1 2 2 3 8 13 18 22 22 18 15 14 13 11 7 5 4 4 5 9 14 19 22 23 21 17 15 17 16 14 12 10 8 8 7 6 5 4 3
0 0 0 0 0 0 1 1 4 9 14 17 20 18 14 13 12 10 7 5 4 3 2 3 5 9 12 12 13 14 12 13 14 14 14 14 12 9 6 5 4 4 4 3
0 0 0 0 0 0 0 0 3 8 11 12 12 10 8 8 7 4 3 3 3 2 1 1 2 5 6 7 8 10 10 9 10 10 11 12 11 7 5 3 2 2 2 1
0 0 0 0 0 0 0 1 3 6 9 8 8 8 7 6 4 3 2 2 1 1 0 0 1 2 4 5 5 6 6 6 6 7 8 8 7 6 4 3 2 1 0 0
0 0 0 0 1 1 1 3 4 5 6 7 8 8 6 4 4 3 3 2 1 0 0 0 0 1 2 3 3 2 3 3 4 4 4 3 3 4 3 2 1 1 0 0
0 0 0 1 2 3 4 5 5 5 5 5 6 5 4 4 4 3 2 1 0 0 0 0 0 1 1 1 1 1 1 1 2 2 2 2 2 2 2 1 0 0 0 0
0 0 0 1 3 4 6 5 4 4 4 3 2 2 2 3 3 2 1 0 0 0 0 0 0 0 0 0 0 0 0 0 1 1 1 1 1 1 1 0 0 0 0 0
0 0 0 1 1 3 4 3 2 2 2 1 0 0 1 1 1 1 0 0 0 0 0 0 0 0 0 0 0 0 0 0 0 0 1 1 0 0 0 0 0 0 0 0
0 0 0 0 0 1 1 0 0 1 1 0 0 0 0 0 0 0 0 0 0 0 0 0 0 0 0 0 0 0 0 0 0 0 0 0 0 0 0 0 0 0 0 0
0 0 0 0 0 0 0 0 0 0 0 0 0 0 0 0 0 0 0 0 0 0 0 0 0 0 0 0 0 0 0 0 0 0 0 0 0 0 0 0 0 0 0 0
0 0 0 0 0 0 0 0 0 0 0 0 0 0 0 0 0 0 0 0 0 0 0 0 0 0 0 0 0 0 0 0 0 0 0 0 0 0 0 0 0 0 0 0
0 0 0 0 0 0 0 0 0 0 0 0 0 0 0 0 0 0 0 0 0 0 0 0 0 0 0 0 0 0 0 0 0 0 0 0 0 0 0 0 0 0 0 0
0 0 0 0 0 0 0 0 0 0 0 0 0 0 0 0 0 0 0 0 0 0 0 0 0 0 0 0 0 0 0 0 0 0 0 0 0 0 0 0 0 0 0 0
0 0 0 0 0 0 0 0 0 0 0 0 0 0 0 0 0 0 0 0 0 0 0 0 0 0 0 0 0 0 0 0 0 0 0 0 0 0 0 0 0 0 0 0
0 0 0 0 0 0 0 0 0 0 0 0 0 0 0 0 0 0 0 0 0 0 0 0 0 0 0 0 0 0 0 0 0 0 0 0 0 0 0 0 0 0 0 0
0 0 0 0 0 0 0 0 0 0 0 0 0 0 0 0 0 0 0 0 0 0 0 0 0 0 0 0 0 0 0 0 0 0 0 0 0 0 0 0 0 0 0 0
0 0 0 0 0 0 0 0 0 0 0 0 0 0 0 0 0 0 0 0 0 0 0 0 0 0 0 0 0 0 0 0 0 0 0 0 0 0 0 0 0 0 0 0
0 0 0 0 0 0 0 0 0 0 0 0 0 0 0 0 0 0 0 0 0 0 0 0 0 0 0 0 0 0 0 0 0 0 0 0 0 0 0 0 0 0 0 0
0 0 0 0 0 0 0 0 0 0 0 0 0 0 0 0 0 0 0 0 0 0 0 0 0 0 0 0 0 0 0 0 0 0 0 0 0 0 0 0 0 0 0 0
0 0 0 0 0 0 0 0 0 0 0 0 0 0 0 0 0 0 0 0 0 0 0 0 0 0 0 0 0 0 0 0 0 0 0 0 0 0 0 0 0 0 0 0
0 0 0 0 0 0 0 0 0 0 0 0 0 0 0 0 0 0 0 0 0 0 0 0 0 0 0 0 0 0 0 0 0 0 0 0 0 0 0 0 0 0 0 0
0 0 0 0 0 0 0 0 0 0 0 0 0 0 0 0 0 0 0 0 0 0 0 0 0 0 0 0 0 0 0 0 0 0 0 0 0 0 0 0 0 0 0 0
0 0 0 0 0 0 0 0 0 0 0 0 0 0 0 0 0 0 0 0 0 0 0 0 0 0 0 0 0 0 0 0 0 0 0 0 0 0 0 0 0 0 0 0
Wind_Speed
5 5 3 4 4 5 5 8 8 7 8 9 8 6 5 4 4 4 4 5 6 6 7 7 8 9 10 11 10 10 10 10 10 9 8 7 7 7 6 6 7 7 7 7
4 3 2 3 3 4 5 4 5 5 5 6 4 3 3 4 4 4 4 4 4 4 5 6 8 9 10 10 10 10 10 10 9 8 7 7 7 7 7 7 6 7 8 8
3 4 3 3 4 4 3 3 6 6 6 6 5 4 4 4 5 5 4 4 3 2 2 3 4 6 8 9 8 9 9 8 8 7 7 7 7 6 7 7 6 6 7 7
1 1 4 5 3 1 4 3 1 3 6 9 9 7 6 5 6 5 5 5 5 4 5 3 2 3 5 6 7 7 7 6 6 6 7 5 5 6 6 5 6 6 7 7
3 3 3 4 3 1 4 2 2 6 9 11 12 11 8 6 7 7 7 7 6 5 5 4 4 3 5 6 6 5 5 5 6 6 6 6 6 6 5 5 5 6 5 6
3 3 5 5 4 2 5 1 0 6 9 9 8 6 3 3 7 9 9 8 7 6 7 7 6 5 8 7 6 4 3 3 3 3 5 6 6 5 4 5 5 4 4 5
4 3 4 2 4 1 4 6 4 6 7 6 4 5 7 8 9 9 9 9 9 9 9 7 6 8 9 8 6 3 4 5 4 4 3 3 3 2 2 2 2 2 3 3
3 3 4 3 2 4 5 4 6 7 8 12 12 11 11 10 10 9 10 10 9 10 10 8 8 9 10 8 5 5 6 6 5 4 3 2 3 2 2 2 2 1 1 1
2 2 2 2 2 1 5 7 5 7 10 14 14 13 11 10 9 10 10 8 7 9 10 8 8 9 9 6 5 6 7 6 4 4 3 2 2 2 2 2 2 1 1 1
1 1 1 2 3 3 7 8 8 11 13 14 14 12 11 10 9 9 8 8 7 9 10 8 8 8 7 6 6 7 6 5 4 4 4 4 2 2 2 2 2 1 1 1
1 1 2 4 4 6 9 11 12 13 13 13 13 12 11 10 9 8 8 7 7 7 8 7 6 7 6 6 6 7 6 5 4 4 4 4 3 2 2 1 2 3 2 2
3 4 4 4 4 9 13 12 13 15 14 12 12 12 10 9 7 7 7 6 7 7 7 6 6 6 6 5 6 6 6 5 4 3 3 3 2 3 4 3 3 2 1 1
2 4 6 8 9 10 12 13 13 14 14 12 10 10 10 8 6 7 7 6 6 6 5 5 5 5 5 5 6 6 5 4 3 3 3 2 2 2 3 4 6 5 4 3
5 8 11 9 10 11 14 15 14 14 12 11 10 9 9 8 7 7 6 5 5 5 5 5 5 5 4 5 6 6 5 5 4 3 3 3 2 2 1 2 2 3 4 4
8 9 11 12 12 11 12 14 15 12 11 10 9 9 9 8 7 6 5 5 6 6 5 5 5 4 4 5 6 5 4 3 3 3 3 3 2 2 2 3 2 2 2 3
10 11 12 13 12 11 12 12 12 10 9 8 8 7 7 7 6 5 4 5 5 4 3 4 3 2 4 5 5 4 4 6 5 3 3 3 3 3 3 2 2 2 2 1
12 9 10 11 10 10 9 9 9 8 7 8 7 7 7 7 6 5 4 4 4 3 2 3 2 2 3 4 4 3 3 4 6 4 3 3 3 2 2 2 2 1 1 1
10 9 9 10 10 10 9 8 8 7 6 6 6 6 6 6 5 4 3 3 4 3 2 1 1 2 4 4 3 2 2 2 2 2 2 2 2 2 2 2 1 1 1 2
12 12 11 10 9 9 8 8 7 6 5 6 6 6 5 5 4 4 3 4 4 2 2 1 3 3 3 4 4 2 2 3 3 2 2 3 3 2 2 2 2 2 2 2
11 11 11 10 9 9 7 6 6 6 5 6 6 6 5 4 4 4 4 3 0 1 1 2 3 2 2 3 4 2 3 3 3 2 3 3 3 3 3 3 3 3 3 3
9 10 10 9 8 7 6 6 6 5 4 5 5 5 3 2 3 4 4 2 1 1 2 3 3 2 2 2 4 3 3 3 3 3 3 3 3 3 3 3 3 3 3 3
7 7 7 7 7 5 4 4 5 5 4 4 4 4 4 3 3 3 2 1 1 2 2 2 1 2 3 4 3 3 4 4 3 3 3 3 2 2 3 3 3 3 3 3
6 6 6 5 5 4 4 4 4 4 3 3 3 3 3 2 2 3 1 0 1 4 3 2 3 6 7 4 3 4 4 4 4 3 3 3 3 3 3 3 3 3 3 3
5 5 5 4 5 5 4 2 2 2 3 3 2 3 3 3 2 1 2 4 5 6 3 3 6 7 7 4 3 4 4 4 3 3 3 3 3 3 3 3 3 3 4 4
4 4 4 5 4 2 1 2 3 3 4 3 3 3 3 3 3 2 2 3 5 5 3 3 6 6 5 3 3 3 3 3 4 3 3 3 3 3 3 3 3 4 4 4
3 2 2 2 1 1 1 2 2 2 2 3 2 2 3 3 3 3 3 3 4 4 3 2 3 4 3 3 4 4 4 4 5 4 4 4 4 4 4 4 6 4 4 4
3 2 2 3 3 2 2 2 2 1 1 2 2 1 2 2 3 3 3 3 3 3 3 2 3 3 3 4 4 4 4 4 4 4 4 4 4 4 4 5 4 4 4 4
Wind_Direction
242 244 221 220 201 180 174 177 178 202 192 212 210 186 194 177 162 144 145 155 168 182 185 186 187 189 190 191 190 186 184 190 197 198 195 190 188 188 186 185 189 185 185 192
307 289 256 266 229 208 199 180 176 166 216 212 193 151 126 120 122 127 136 147 159 179 185 188 189 189 189 191 190 183 184 193 194 189 189 194 197 192 189 194 196 190 193 196
287 302 6 274 240 217 194 168 159 187 207 147 131 130 138 125 104 101 110 115 111 123 162 165 175 180 182 185 178 175 183 187 186 187 194 199 201 197 197 197 196 201 205 202
207 32 230 248 292 157 119 101 110 149 142 131 125 102 74 83 99 93 94 90 81 74 67 58 86 140 161 157 160 171 178 182 180 182 190 191 191 198 202 199 201 207 210 208
156 185 255 287 312 51 105 60 69 122 124 123 119 87 55 51 82 92 88 83 78 74 74 68 61 89 121 126 141 158 174 178 179 184 185 182 189 195 198 200 208 209 207 208
150 171 217 240 264 245 109 126 204 134 144 144 128 111 129 102 90 85 77 71 68 70 69 64 55 70 84 89 101 117 140 146 153 168 173 180 190 193 194 195 205 201 213 215
169 200 232 250 260 198 162 202 175 136 134 123 108 125 128 110 95 87 80 74 71 68 62 52 53 69 73 71 74 84 91 92 95 105 132 154 159 160 156 162 161 179 213 224
148 182 235 314 268 187 193 152 138 127 119 106 104 110 111 104 95 87 80 72 70 71 63 51 55 70 69 57 44 55 67 69 70 76 80 88 104 107 113 124 131 150 168 245
177 201 268 320 278 227 125 116 116 115 116 115 115 114 109 102 95 87 81 75 70 76 70 54 50 65 69 53 50 59 62 59 56 56 58 62 87 114 125 130 145 163 173 188
92 297 313 11 36 72 98 101 107 115 114 112 112 113 109 103 97 91 85 79 74 74 71 58 47 53 58 52 56 64 62 55 55 57 48 46 56 86 107 116 123 122 141 163
142 212 57 43 65 86 94 95 97 102 104 110 114 111 109 106 102 97 91 84 80 80 77 66 55 52 47 49 58 60 57 53 48 50 56 53 48 56 83 97 139 144 166 170
198 197 142 130 106 104 104 105 109 110 104 102 108 108 104 101 101 100 96 92 87 82 78 68 59 50 39 43 57 60 53 46 43 42 45 46 45 29 33 57 58 82 111 123
127 108 110 104 97 105 108 108 111 110 111 110 105 106 104 102 98 96 94 93 94 91 85 74 63 48 32 38 53 57 54 43 38 37 32 31 44 51 24 19 34 44 55 74
95 100 96 95 98 100 104 105 102 98 97 101 102 101 102 98 93 92 95 98 95 87 77 69 61 43 28 43 51 48 45 42 41 30 22 26 37 49 79 83 41 17 25 44
65 89 107 105 98 96 98 102 100 99 99 98 99 100 101 99 97 96 96 94 86 78 71 65 57 31 20 41 47 41 36 26 24 23 25 31 37 47 56 69 77 60 24 15
96 94 99 101 101 98 100 103 104 104 105 103 100 101 103 106 104 100 94 95 93 86 76 68 53 21 29 42 41 33 26 23 29 29 28 30 35 42 47 59 67 64 46 0
110 107 107 105 101 101 102 106 109 110 108 109 113 113 106 100 93 90 89 96 105 105 90 80 55 29 38 47 47 33 18 15 24 28 26 34 39 43 51 65 69 61 354 340
100 107 111 114 115 111 107 106 107 110 118 124 122 114 111 113 115 114 111 99 84 61 38 49 70 46 32 28 33 24 17 17 23 24 31 39 40 42 49 54 36 10 341 359
93 95 95 97 101 105 103 103 104 106 108 108 105 105 109 113 115 110 99 86 83 64 340 3 62 52 26 9 22 20 19 23 29 32 38 41 43 38 38 34 22 10 6 8
89 92 92 90 90 95 99 100 97 93 96 103 102 97 96 102 105 100 90 77 98 202 223 59 59 43 12 357 19 23 30 37 44 39 42 48 49 43 41 38 27 16 11 11
87 88 88 88 85 83 88 94 97 94 91 97 104 109 113 106 102 103 98 73 317 37 80 67 56 24 4 15 32 43 48 47 45 45 47 47 47 44 39 34 27 19 12 9
79 82 84 84 82 76 73 81 90 91 89 90 99 106 105 94 83 82 89 154 216 94 85 60 50 43 46 48 46 47 50 54 53 49 48 42 38 30 26 24 18 13 8 4
82 80 76 77 83 79 66 69 84 96 100 105 113 120 128 133 131 125 119 312 90 88 79 53 61 62 60 56 55 58 58 58 54 50 46 38 33 29 23 18 11 5 1 360
79 74 71 73 74 73 68 59 77 87 90 90 99 111 116 107 78 81 130 120 105 95 82 64 65 67 64 61 63 64 58 50 46 42 38 36 33 28 22 14 8 6 10 12
74 72 72 73 70 71 85 65 59 62 71 70 67 74 88 109 120 124 109 105 105 99 86 67 63 62 59 60 65 67 62 54 47 40 34 32 26 21 20 17 19 23 23 19
74 74 77 82 90 83 80 79 72 63 78 72 57 55 65 74 88 93 98 101 98 96 87 73 67 65 67 68 67 67 62 51 44 41 35 29 28 32 32 32 31 28 21 14
51 47 51 40 33 49 72 89 96 88 99 111 105 83 89 94 93 93 96 96 93 88 82 73 70 76 80 79 75 68 60 51 45 43 39 36 35 33 30 33 31 26 18 12